Location: *
(44.3925°N, 5.4708°E)
Time: 11:12:19
(UTC+00:00)

CZ-2D R/B - Pass Details

Date: 18 September 2019
Orbit: 523 x 538 km, 97.4° (Epoch: 13 October)

Event Time Altitude Azimuth Distance (km) Brightness Sun altitude
Rises 18:47:47 0° 179° (S) 2,641 6.6 -12.1°
Reaches altitude 10° 18:49:56 10° 186° (S) 1,757 5.8 -12.5°
Maximum altitude 18:53:36 47° 261° (W) 697 4.3 -13.1°
Drops below altitude 10° 18:57:18 10° 336° (NNW) 1,770 6.5 -13.7°
Sets 18:59:28 0° 343° (NNW) 2,665 7.3 -14.1°
